Content
SEND FEEDBACK

Daily
Averages
Monthly
Summary
United States of America

TAMUNING, GUAM


Home > North America > United States > Guam
Elevation: 76 meters     Latitude: 13 29N     Longitude: 144 47E

WEATHER
 
SELECT A DAY
Number of Records: 341,964;   Date Range: 1/1/95 - 7/26/14
 
SHARE

PRINT THIS DATA

[ ← Previous Day ]
WEATHER ALMANAC - 5 OCTOBER, 2013
[ Next Day → ]
[ °F ]   °C
Weather ElementAverageHighLow
Temperature27.4 °C29.3 °C (12:58 pm)25 °C (5:58 am)
Dewpoint25.3 °C26.2 °C (9:58 am)24 °C (6:48 pm)
Humidity88.1 %100 % (5:58 am)78 % (3:58 pm)
Barometer1004.1 hPa1007.8 hPa (10:43 pm)1000.3 hPa (1:58 am)
Wind Speed18.7 km/h25.9 km/h (2:58 pm)
Weather ElementAverage
Visibility16.1 km
Wind DirectionS (182 °)

Weather ElementTotal
Precipitation0.25 mm
Cooling Degree Days8.8 (Base 18.3)
Growing Degree Days17.2 (Base 10)
Averaged from 46 records on 5 October, 2013
WEATHER CONDITIONS BREAKOUT
WIND DIRECTION BREAKOUT
WEATHER BY HOUR - 5 OCTOBER, 2013
[ °F ]   °C
Local TimeTemperatureDewpointHumidityBarometerVisibilityWind DirectionWind SpeedGust SpeedPrecipitationEventsConditions
1:58 AM25.3 °C24.4 °C95 %1000.3 hPa16.1 kmSW (230°)14.8 km/hClear
5:58 AM25 °C25 °C100 %1003 hPa16.1 kmSW (230°)13 km/hClear
6:56 AM26 °C25 °C94 %1005.1 hPa16.1 kmSW (220°)11.1 km/hClear
6:58 AM26 °C25 °C94 %1003.4 hPa16.1 kmSW (220°)9.3 km/hClear
7:58 AM27.9 °C25.6 °C87 %1001.4 hPa16.1 kmSouth (190°)13 km/hPartly Cloudy
8:19 AM27 °C26 °C94 %1005.4 hPa16.1 kmSouth (190°)20.4 km/hLight Drizzle
8:24 AM27 °C26 °C94 %1005.4 hPa16.1 kmSouth (190°)18.5 km/hScattered Clouds
8:34 AM27 °C26 °C94 %1005.4 hPa14.5 kmSouth (180°)20.4 km/hMostly Cloudy
8:39 AM27 °C26 °C94 %1005.8 hPa16.1 kmSouth (190°)20.4 km/hMostly Cloudy
8:44 AM27 °C26 °C94 %1005.8 hPa16.1 kmSouth (180°)20.4 km/hMostly Cloudy
8:49 AM27 °C25 °C89 %1005.8 hPa16.1 kmSouth (190°)20.4 km/hOvercast
8:58 AM27.3 °C25.2 °C88 %1002 hPa16.1 kmSouth (180°)18.5 km/h0 mmOvercast
8:59 AM27 °C25 °C89 %1006.1 hPa16.1 kmSouth (180°)20.4 km/hLight Drizzle
9:04 AM28 °C25 °C84 %1006.1 hPa16.1 kmSouth (180°)22.2 km/hLight Drizzle
9:08 AM28 °C25 °C84 %1006.1 hPa16.1 kmSouth (180°)24.1 km/hMostly Cloudy
9:10 AM28 °C26 °C89 %1006.1 hPa16.1 kmSouth (190°)24.1 km/hLight Drizzle
9:15 AM28 °C26 °C89 %1006.1 hPa16.1 kmSouth (180°)22.2 km/hLight Drizzle
9:25 AM28 °C26 °C89 %1006.4 hPa16.1 kmSouth (190°)18.5 km/hRainRain
9:30 AM27 °C26 °C94 %1006.4 hPa16.1 kmSouth (180°)22.2 km/hRainLight Rain
9:35 AM27 °C26 °C94 %1006.4 hPa16.1 kmSouth (180°)24.1 km/hMostly Cloudy
9:40 AM28 °C26 °C89 %1006.4 hPa16.1 kmSouth (190°)20.4 km/hMostly Cloudy
9:58 AM28.2 °C26.2 °C89 %1002.4 hPa14.5 kmSSW (200°)18.5 km/h0.25 mmMostly Cloudy
10:03 AM28 °C25 °C84 %1006.4 hPa16.1 kmSSW (210°)20.4 km/hScattered Clouds
10:58 AM29 °C25.5 °C81 %1002 hPa16.1 kmSouth (190°)18.5 km/hClear
11:58 AM28.6 °C25.3 °C82 %1001.4 hPa16.1 kmSouth (180°)18.5 km/hScattered Clouds
12:33 PM28 °C26 °C89 %1005.1 hPa16.1 kmSouth (180°)22.2 km/hMostly Cloudy
12:38 PM28 °C25 °C84 %1005.1 hPa16.1 kmSouth (180°)20.4 km/hMostly Cloudy
12:48 PM28 °C25 °C84 %1005.1 hPa16.1 kmSouth (180°)20.4 km/hMostly Cloudy
12:58 PM29.3 °C25.8 °C81 %1000.7 hPa16.1 kmSouth (170°)18.5 km/hScattered Clouds
1:58 PM28.6 °C25.5 °C83 %1000.7 hPa16.1 kmSouth (180°)20.4 km/hPartly Cloudy
2:58 PM27.3 °C25 °C87 %1000.3 hPa16.1 kmSouth (180°)25.9 km/hPartly Cloudy
3:58 PM28.9 °C24.7 °C78 %1000.3 hPa16.1 kmSouth (170°)18.5 km/hClear
4:58 PM28.3 °C25.1 °C83 %1000.7 hPa16.1 kmSouth (180°)16.7 km/hScattered Clouds
5:08 PM28 °C25 °C84 %1004.7 hPa16.1 kmSouth (170°)16.7 km/hMostly Cloudy
5:13 PM28 °C25 °C84 %1005.1 hPa16.1 kmSouth (170°)20.4 km/hScattered Clouds
5:58 PM27.3 °C25 °C87 %1001.4 hPa16.1 kmSouth (170°)18.5 km/hClear
6:38 PM27 °C25 °C89 %1005.8 hPa16.1 kmSouth (180°)16.7 km/hScattered Clouds
6:48 PM27 °C24 °C84 %1006.1 hPa16.1 kmSouth (180°)20.4 km/hMostly Cloudy
6:58 PM27.2 °C24.7 °C86 %1002 hPa16.1 kmSouth (180°)20.4 km/hScattered Clouds
7:58 PM27 °C24.6 °C87 %1002.4 hPa16.1 kmSouth (180°)20.4 km/hScattered Clouds
8:58 PM27 °C25 °C89 %1003.4 hPa16.1 kmSE (140°)18.5 km/hScattered Clouds
9:58 PM27.1 °C24.8 °C87 %1003 hPa16.1 kmSSE (150°)13 km/hPartly Cloudy
10:38 PM27 °C25 °C89 %1007.5 hPa16.1 kmSSE (150°)14.8 km/hMostly Cloudy
10:43 PM27 °C25 °C89 %1007.8 hPa16.1 kmSSE (150°)14.8 km/hMostly Cloudy
10:58 PM27.1 °C25 °C88 %1003 hPa16.1 kmSSE (160°)11.1 km/hScattered Clouds
11:58 PM27.1 °C24.9 °C88 %1003 hPa16.1 kmSSE (150°)16.7 km/hScattered Clouds
Hourly data recorded from PGUA, located 0 kilometers away from Tamuning, Guam







STORIES FROM OUR PARTNERS